カタログに戻る

STARLINK-4715

運用中通信VLEO
NORAD 53801·PAYLOAD·🇺🇸 United States

打ち上げ Sep 11, 2022 から Cape Canaveral Space Force Station

Loading…

次のパス (今後24時間)

TLE

最新Source: CelesTrak SupGP

元期: Sep 14, 2026, 14:40 UTC

1 53801C 22111AE  26257.61159722  .00026515  00000+0  78341-3 0  2570
2 53801  53.1591 120.9390 0001336  92.4258 250.9708 15.34376801    10

AllMySatでSTARLINK-4715をリアルタイム追跡

Download on the App Store